Location: Bazinghen
(50.8246°N, 1.6616°E)
Time: 01:40:33
(UTC+00:00)

Spot 2 Rocket - Pass Details

Date: 09 April 2020
Orbit: 757 x 772 km, 98.6° (Epoch: 06 June)

Event Time Altitude Azimuth Distance (km) Brightness Sun altitude
Exits shadow 20:22:13 23° 142° (SE) 1,588 4.6 -15.5°
Maximum altitude 20:25:18 61° 70° (ENE) 879 3.6 -15.9°
Drops below altitude 10° 20:30:21 10° 351° (N) 2,324 6.6 -16.6°
Sets 20:32:41 0° 348° (NNW) 3,253 7.5 -16.9°
